P/2019 A8 ( PanSTARRS )

Japanese version
Home page
Updated on February 8, 2019

---------------------------------------------------------------------

* Profile

Discovery Date January 11, 2019
Magnitude 21.5 mag
Discoverer Pan-STARRS 1 telescope (Haleakala)

* Orbital Elements

Epoch 2018 Aug. 30.0 TT = JDT 2458360.5
T 2018 Aug. 26.84390 TT                                 MPCW
q   1.8537324            (2000.0)            P               Q
n   0.17608388     Peri.   18.69741     -0.83087531     -0.55494553
a   3.1525089      Node   127.52638     +0.50372069     -0.78139980
e   0.4119819      Incl.    2.96397     +0.23645650     -0.28539413
P   5.60
From 26 observations 2019 Jan. 11-Feb. 2, mean residual 0".5.

* Magnitudes Graph

        m1 = 15.5 + 5 log d + 10.0 log r

---------------------------------------------------------------------

The orbital elements are published on M.P.E.C. 2019-C20.
The magnitudes graphs are made with Comet for Windows.

---------------------------------------------------------------------

Copyright(C) Seiichi Yoshida (comet@aerith.net). All rights reserved.